Richmond Hanover County, VA

7:01 AM EDT on July 22, 2017 (GMT -0400)
Hanover County Municipal

Weather History for KOFP - September, 2012

Change the Weather History Date:

Friday, September 7, 2012

  Actual Average Record
Temperature  
Mean Temperature 75 °F -  
Max Temperature 88 °F 83 °F 104 °F (1954)
Min Temperature 62 °F 60 °F 39 °F (1962)
Cooling Degree Days 10    
Growing Degree Days 25 (Base 50)    
Moisture  
Dew Point 64 °F    
Average Humidity 92    
Maximum Humidity 100    
Minimum Humidity 46    
Precipitation  
Precipitation 0.00 in - - ()
Sea Level Pressure  
Sea Level Pressure 29.94 in    
Wind  
Wind Speed 0 mph (SE)    
Max Wind Speed 5 mph    
Max Gust Speed -    
Visibility 4 miles    
Events Fog    
Averages and records for this station are not official NWS values.
T = Trace of Precipitation, MM = Missing Value Source: NWS Daily Summary

Daily Weather History Graph

Daily Weather History Graph

Search for Another Location

Airport or City:

Trip Planner

Search our weather history database for the weather conditions in past years. The results will help you decide how hot, cold, wet, or windy it might be!

Date:

Astronomy

Sep. 07, 2012 Rise Set
Actual Time 6:45 AM EDT 7:29 PM EDT
Civil Twilight 6:18 AM EDT 7:55 PM EDT
Nautical Twilight 5:47 AM EDT 8:26 PM EDT
Astronomical Twilight 5:15 AM EDT 8:59 PM EDT
Moon 11:31 PM EDT (9/7) 1:27 PM EDT (9/7)
Length of Visible Light 13h 36m
Length of Day
12h 43m
Waning Gibbous, 58% of the Moon is Illuminated
Sep 7
Waning Gibbous
Sep 8
Last Quarter
Sep 15
New
Sep 22
First Quarter
Sep 29
Full

Hourly Weather History & Observations

Time (EDT) Temp. Heat Index Dew Point Humidity Pressure Visibility Wind Dir Wind Speed Gust Speed Precip Events Conditions
12:17 AM 64.4 °F - 64.4 °F 100% 29.97 in 0.8 mi Calm Calm - N/A   Clear
12:36 AM 64.4 °F - 64.4 °F 100% 29.96 in 1.5 mi Calm Calm - N/A   Clear
12:40 AM 64.4 °F - 64.4 °F 100% 29.96 in 3.0 mi Calm Calm - N/A   Clear
12:43 AM 64.4 °F - 64.4 °F 100% 29.96 in 1.5 mi Calm Calm - N/A   Clear
12:47 AM 64.4 °F - 64.4 °F 100% 29.96 in 0.8 mi Calm Calm - N/A   Clear
12:54 AM 64.9 °F - 64.0 °F 97% 29.96 in 0.5 mi Calm Calm - N/A Fog Fog
1:07 AM 64.4 °F - 64.4 °F 100% 29.96 in 1.0 mi Calm Calm - N/A   Clear
1:18 AM 64.4 °F - 64.4 °F 100% 29.95 in 0.8 mi Calm Calm - N/A   Mist
1:26 AM 64.4 °F - 64.4 °F 100% 29.95 in 0.5 mi Calm Calm - N/A Fog Fog
1:36 AM 64.4 °F - 64.4 °F 100% 29.95 in 0.5 mi Calm Calm - N/A Fog Fog
1:54 AM 64.0 °F - 64.0 °F 100% 29.95 in 0.5 mi Calm Calm - N/A Fog Fog
2:04 AM 64.4 °F - 64.4 °F 100% 29.95 in 1.2 mi Calm Calm - N/A   Partly Cloudy
2:07 AM 64.4 °F - 62.6 °F 94% 29.95 in 2.5 mi Calm Calm - N/A   Partly Cloudy
2:14 AM 64.4 °F - 64.4 °F 100% 29.95 in 5.0 mi Calm Calm - N/A   Partly Cloudy
2:20 AM 64.4 °F - 64.4 °F 100% 29.94 in 1.8 mi Calm Calm - N/A   Clear
2:36 AM 64.4 °F - 64.4 °F 100% 29.94 in 0.8 mi Calm Calm - N/A   Clear
2:46 AM 64.4 °F - 62.6 °F 94% 29.94 in 1.5 mi Calm Calm - N/A   Clear
2:51 AM 64.4 °F - 62.6 °F 94% 29.94 in 3.0 mi Calm Calm - N/A   Clear
2:54 AM 64.0 °F - 64.0 °F 100% 29.93 in 3.0 mi Calm Calm - N/A   Clear
3:02 AM 64.4 °F - 64.4 °F 100% 29.93 in 2.0 mi Calm Calm - N/A   Clear
3:07 AM 64.4 °F - 64.4 °F 100% 29.93 in 1.5 mi Calm Calm - N/A   Partly Cloudy
3:10 AM 64.4 °F - 64.4 °F 100% 29.93 in 0.8 mi Calm Calm - N/A   Mist
3:18 AM 64.4 °F - 62.6 °F 94% 29.93 in 1.2 mi Calm Calm - N/A   Partly Cloudy
3:21 AM 64.4 °F - 62.6 °F 94% 29.93 in 2.0 mi Calm Calm - N/A   Partly Cloudy
3:29 AM 62.6 °F - 62.6 °F 100% 29.92 in 1.2 mi Calm Calm - N/A   Partly Cloudy
3:31 AM 62.6 °F - 62.6 °F 100% 29.92 in 0.8 mi Calm Calm - N/A   Mist
3:43 AM 64.4 °F - 62.6 °F 94% 29.93 in 0.5 mi Calm Calm - N/A Fog Fog
3:54 AM 63.0 °F - 62.1 °F 97% 29.93 in 1.0 mi Calm Calm - N/A   Clear
4:02 AM 62.6 °F - 62.6 °F 100% 29.93 in 0.5 mi Calm Calm - N/A Fog Fog
4:13 AM 64.4 °F - 62.6 °F 94% 29.93 in 1.2 mi Calm Calm - N/A   Partly Cloudy
4:17 AM 64.4 °F - 62.6 °F 94% 29.93 in 0.8 mi Calm Calm - N/A   Mist
4:32 AM 62.6 °F - 62.6 °F 100% 29.93 in 1.2 mi Calm Calm - N/A   Partly Cloudy
4:34 AM 62.6 °F - 62.6 °F 100% 29.93 in 2.5 mi Calm Calm - N/A   Partly Cloudy
4:41 AM 62.6 °F - 62.6 °F 100% 29.93 in 5.0 mi Calm Calm - N/A   Partly Cloudy
4:54 AM 63.0 °F - 62.1 °F 97% 29.93 in 5.0 mi Calm Calm - N/A   Clear
5:00 AM 62.6 °F - 62.6 °F 100% 29.94 in 1.5 mi Calm Calm - N/A   Partly Cloudy
5:02 AM 62.6 °F - 62.6 °F 100% 29.94 in 1.0 mi Calm Calm - N/A   Mist
5:11 AM 62.6 °F - 62.6 °F 100% 29.94 in 1.8 mi Calm Calm - N/A   Scattered Clouds
5:13 AM 62.6 °F - 62.6 °F 100% 29.94 in 3.0 mi Calm Calm - N/A   Scattered Clouds
5:20 AM 62.6 °F - 62.6 °F 100% 29.94 in 5.0 mi Calm Calm - N/A   Mostly Cloudy
5:25 AM 62.6 °F - 62.6 °F 100% 29.94 in 1.8 mi Calm Calm - N/A   Mostly Cloudy
5:34 AM 62.6 °F - 60.8 °F 94% 29.94 in 1.2 mi Calm Calm - N/A   Mostly Cloudy
5:41 AM 62.6 °F - 60.8 °F 94% 29.94 in 1.5 mi Calm Calm - N/A   Mostly Cloudy
5:54 AM 62.1 °F - 62.1 °F 100% 29.94 in 0.5 mi Calm Calm - N/A Fog Fog
5:59 AM 62.6 °F - 62.6 °F 100% 29.94 in 1.8 mi Calm Calm - N/A   Mostly Cloudy
6:05 AM 62.6 °F - 62.6 °F 100% 29.94 in 3.0 mi Calm Calm - N/A   Overcast
6:26 AM 62.6 °F - 60.8 °F 94% 29.95 in 5.0 mi Calm Calm - N/A   Scattered Clouds
6:44 AM 62.6 °F - 60.8 °F 94% 29.96 in 4.0 mi Calm Calm - N/A   Mostly Cloudy
6:54 AM 62.1 °F - 61.0 °F 96% 29.95 in 3.0 mi Calm Calm - N/A   Mostly Cloudy
7:02 AM 62.6 °F - 60.8 °F 94% 29.96 in 2.0 mi Calm Calm - N/A   Overcast
7:26 AM 62.6 °F - 62.6 °F 100% 29.96 in 0.5 mi Calm Calm - N/A Fog Fog
7:35 AM 64.4 °F - 62.6 °F 94% 29.97 in 1.5 mi Calm Calm - N/A   Overcast
7:45 AM 64.4 °F - 64.4 °F 100% 29.96 in 1.0 mi Calm Calm - N/A   Mist
7:54 AM 64.9 °F - 64.0 °F 97% 29.96 in 1.5 mi Calm Calm - N/A   Mostly Cloudy
7:58 AM 66.2 °F - 64.4 °F 94% 29.97 in 2.0 mi Calm Calm - N/A   Scattered Clouds
8:08 AM 66.2 °F - 66.2 °F 100% 29.97 in 4.0 mi Calm Calm - N/A   Partly Cloudy
8:54 AM 69.1 °F - 68.0 °F 96% 29.98 in 6.0 mi Calm Calm - N/A   Partly Cloudy
9:54 AM 75.0 °F - 70.0 °F 84% 29.99 in 10.0 mi Variable 3.5 mph - N/A   Clear
10:54 AM 78.1 °F - 66.9 °F 68% 29.99 in 10.0 mi South 3.5 mph - N/A   Clear
11:54 AM 81.0 °F 83.8 °F 68.0 °F 65% 29.98 in 10.0 mi Variable 3.5 mph - N/A   Clear
12:54 PM 84.0 °F 86.3 °F 66.0 °F 55% 29.97 in 10.0 mi Variable 4.6 mph - N/A   Clear
1:54 PM 84.9 °F 88.2 °F 68.0 °F 57% 29.95 in 10.0 mi Variable 3.5 mph - N/A   Clear
2:54 PM 87.1 °F 89.2 °F 66.0 °F 49% 29.93 in 10.0 mi South 3.5 mph - N/A   Clear
3:54 PM 88.0 °F 89.6 °F 64.9 °F 46% 29.92 in 10.0 mi Calm Calm - N/A   Clear
4:54 PM 86.0 °F 87.6 °F 64.9 °F 49% 29.91 in 10.0 mi ESE 4.6 mph - N/A   Clear
5:54 PM 84.9 °F 86.1 °F 64.0 °F 49% 29.90 in 10.0 mi Variable 3.5 mph - N/A   Clear
6:54 PM 81.0 °F 83.8 °F 68.0 °F 65% 29.89 in 10.0 mi Calm Calm - N/A   Clear
7:54 PM 75.0 °F - 68.0 °F 79% 29.90 in 10.0 mi Calm Calm - N/A   Clear
8:54 PM 72.0 °F - 68.0 °F 87% 29.91 in 10.0 mi ESE 3.5 mph - N/A   Clear
9:54 PM 71.1 °F - 68.0 °F 90% 29.89 in 10.0 mi ESE 3.5 mph - N/A   Clear
10:54 PM 73.0 °F - 70.0 °F 90% 29.87 in 10.0 mi Variable 3.5 mph - N/A   Clear
11:54 PM 71.1 °F - 70.0 °F 96% 29.87 in 8.0 mi Calm Calm - N/A   Clear